Location: Bouillancy
(49.1149°N, 2.9308°E)
Time: 08:10:11
(UTC+00:00)

Cosmos 1602 Rocket - Pass Details

Date: 30 September 2020
Orbit: 605 x 632 km, 82.5° (Epoch: 29 October)

Event Time Altitude Azimuth Distance (km) Brightness Sun altitude
Rises 19:28:42 0° 356° (N) 2,911 7.3 -20.2°
Reaches altitude 10° 19:31:03 10° 4° (N) 2,005 6.4 -20.6°
Enters shadow 19:34:33 37° 51° (NE) 983 4.3 -21.1°
